Location: Cargill Incorporated Elevator
(42.7294°N, 93.7333°W)
Time: 17:24:56
(UTC+00:00)

Meteor 2-10 Rocket - Pass Details

Date: 19 January 2026
Orbit: 733 x 881 km, 81.2° (Epoch: 17 February)

Event Time Altitude Azimuth Distance (km) Brightness Sun altitude
Rises 12:10:18 0° 217° (SW) 3,183 6.5 -16.3°
Reaches altitude 10° 12:12:52 10° 228° (SW) 2,281 5.6 -15.9°
Maximum altitude 12:17:22 31° 289° (WNW) 1,351 4.2 -15.1°
Drops below altitude 10° 12:22:03 10° 351° (N) 2,373 5.8 -14.2°
Sets 12:24:46 0° 2° (N) 3,334 6.7 -13.8°
